Lexington Weather

Lexington, Massachusetts, USA

72°F
9/22/2021 2:41pm 
  • Lexington Conditions: Overcast
  • Temperature: 71.8°F / 22.1°CColder 1.4°F than last hour.
  • Dew Point: 69.1°FIncreased 0.7°Fsince last hour.
  • Relative Humidity: 91%Increased 6.0% since last hour.
  • Wind: Wind from SSW SSW 3 mph, 10-min avg: 2 mph, gust: 5 mph
  • Barometer: 30.08 inFalling 0.02  inHg/hr Falling Slowly
  • Visibility: 10 miles
  • Rain Today: 0.00 in
  •   

Regional Weather Roundup
for Boston / Norton, MA

        
000
ASUS41 KBOX 210604
RWRBOX

REGIONAL WEATHER ROUNDUP
NATIONAL WEATHER SERVICE BOSTON/NORTON MA
200 AM EDT TUE SEP 21 2021

NOTE:  "FAIR" INDICATES FEW OR NO CLOUDS BELOW 12,000 FEET WITH NO 
SIGNIFICANT WEATHER AND/OR OBSTRUCTIONS TO VISIBILITY.

MAZALL-210700-
EASTERN MASSACHUSETTS
  
CITY           SKY/WX    TMP DP  RH WIND       PRES   REMARKS
BOSTON         PTCLDY    60  52  74 S3        30.42S                  
6HR MIN TEMP:  59; 6HR MAX TEMP:  65;                                

BEVERLY          N/A     53  50  89 N3        30.42R                  
LAWRENCE       CLEAR     54  52  93 CALM      30.44S                  
BEDFORD        CLEAR     52  51  97 CALM      30.41S                  
BLUE HILL      NOT AVBL                                               
NORWOOD        CLOUDY    49  47  93 CALM      30.42S                  
MARSHFIELD     CLEAR     59  54  82 SE6       30.41F                  
PLYMOUTH       CLEAR     50  48  93 CALM      30.42S                  
TAUNTON        CLEAR     46  44  93 CALM      30.41F                  
NEW BEDFORD    CLEAR     48  48 100 CALM      30.40F FOG              
$$

MAZALL-210700-
CAPE COD AND THE ISLANDS
  
CITY           SKY/WX    TMP DP  RH WIND       PRES   REMARKS
FALMOUTH       PTCLDY    52  50  93 NE3       30.42S                  
HYANNIS        PTCLDY    51  50  96 NE3       30.40F                  
CHATHAM        PTCLDY    62  57  83 E3        30.42F                  
PROVINCETOWN   CLEAR     51  49  92 E5        30.43S                  
NANTUCKET      PTCLDY    60  56  86 E7        30.41S                  
MARTHAS VNYRD  CLEAR     47  46  97 NE3       30.41S                  
$$
 
MAZALL-210700-
CENTRAL AND WESTERN MASSACHUSETTS
  
CITY           SKY/WX    TMP DP  RH WIND       PRES   REMARKS
WORCESTER      CLEAR     56  52  86 S5        30.42S                  
6HR MIN TEMP:  55; 6HR MAX TEMP:  63;                                

FITCHBURG      CLEAR     52  51  97 CALM      30.43S                  
ORANGE         CLEAR     52  50  93 CALM      30.43R                  
SPRINGFIELD    CLEAR     52  52 100 CALM      30.40R                  
WESTFIELD      PTCLDY    54  54 100 CALM      30.41S                  
NORTH ADAMS    CLEAR     60  52  74 VRB7G16   30.39R                  
PITTSFIELD     CLEAR     56  53  90 SE6       30.39R                  
$$
 
RIZALL-210700-
RHODE ISLAND
  
CITY           SKY/WX    TMP DP  RH WIND       PRES   REMARKS
PROVIDENCE     CLEAR     57  54  89 CALM      30.42S                  
6HR MIN TEMP:  56; 6HR MAX TEMP:  64;                                

NEWPORT        CLEAR     55  51  86 CALM      30.40F                  
SMITHFIELD     CLEAR     52  51  97 SE3       30.42S                  
WESTERLY       CLEAR     51  51 100 CALM      30.40F                  
$$
 
CTZALL-210700-
CONNECTICUT
  
CITY           SKY/WX    TMP DP  RH WIND       PRES   REMARKS
BRADLEY INTL   PTCLDY    54  53  97 CALM      30.41S                  
6HR MIN TEMP:  53; 6HR MAX TEMP:  65;                                

HARTFORD       CLEAR     57  54  89 CALM      30.40S                  
BRIDGEPORT     PTCLDY    66  55  67 SE9       30.38F                  
DANBURY        CLEAR     55  52  89 CALM      30.41R                  
GROTON         CLEAR     55  53  93 N6        30.39F                  
NEW HAVEN      PTCLDY    67  55  65 SE7       30.39S                  
CHESTER        FAIR      54  54 100 CALM      30.40S                  
MERIDEN        CLEAR     55  52  89 CALM      30.40S                  
WILLIMANTIC    CLEAR     52  50  93 NE3       30.41F                  
OXFORD         MOCLDY    56  54  93 E3        30.41S                  
$$

MEZ002-015-021-024-NHZ003-005-008-011-012-014-VTZ005-008-210700-
NORTHERN NEW ENGLAND
  
CITY           SKY/WX    TMP DP  RH WIND       PRES   REMARKS
PORTLAND ME    CLEAR     52  52 100 CALM      30.44R                  
6HR MIN TEMP:  51; 6HR MAX TEMP:  59;                                

BANGOR ME      FOG       54  54 100 S5        30.45R VSB 1/2          
CONCORD NH     PTCLDY    50  48  93 E3        30.42F                  
MANCHESTER NH  PTCLDY    56  51  84 CALM      30.41S                  
NASHUA NH      CLEAR     51  51 100 CALM      30.43S                  
PORTSMOUTH NH  PTCLDY    53  52  94 CALM      30.44S                  
JAFFREY NH     CLEAR     51  51 100 CALM      30.43S                  
KEENE NH       CLEAR     52  52 100 CALM      30.42S FOG              
BURLINGTON VT  PTCLDY    64  55  72 S8        30.31R                  
MT. WASHINGTON MOCLDY    54  14  20 SW15        N/A                   
$$

NYZ052-076-210700-
EASTERN NEW YORK
  
CITY           SKY/WX    TMP DP  RH WIND       PRES   REMARKS
ALBANY         PTCLDY    59  55  87 SE7       30.36R                  
6HR MIN TEMP:  59; 6HR MAX TEMP:  65;                                

NEW YORK CITY  PTCLDY    67  54  63 E9        30.36F                  
6HR MIN TEMP:  67; 6HR MAX TEMP:  71;                                

$$
 
ANZALL-210700-
MARINE OBSERVATIONS
  
STATION/POSITION TIME  TEMP    WIND        PRES    VSBY  WAVE
                       AIR SEA DIR/SP/G                  HT/PER
                 (UTC) (F)     (DEG/KT/KT) (MB)    (MI)  (FT/S)
BOSTON BUOY      0540      65  140/ 12/ 14 1030.3R
BUZZARDS BAY     0500          110/ 11/ 13 1030.6F
NANTUCKET SOUND  0550   65 71  100/ 12/ 14 1029.5F         2/ 3
MASS BAY-STELLWA 0504   64     150/ 12/ 14 1029.5F  1 7/8  2/ 3
ISLE OF SHOALS   0500   64     160/ 12/ 13 1029.7S
S OF BLOCK IS    0526      71                N/A           3/ 9
$$

......................KEY.........................
  SKY/WX - SKY CONDITION/PRESENT WEATHER
  TMP    - TEMPERATURE IN FAHRENHEIT
  DWPT   - DEWPOINT IN FAHRENHEIT
  RH     - RELATIVE HUMIDITY IN PERCENT
  WIND   - DIRECTION AND SPEED IN MPH
  PRES   - MEAN SEA LEVEL PRESSURE IN INCHES OF HG
  WCI    - WIND CHILL INDEX
  VSB    - VISIBILITY IN MILES
  HX     - HEAT INDEX
  TC     - TEMPERATURE IN CELSIUS
  VRB    - VARIABLE WIND DIRECTION
  N/A    - NOT AVAILABLE
  
      

Other recent Regional Weather Roundups

Wed Sep 22, 2:04pm

Wed Sep 22, 1:04pm

Wed Sep 22, 12:05pm

Wed Sep 22, 11:04am

Wed Sep 22, 10:04am

Wed Sep 22, 9:04am

Wed Sep 22, 8:04am

Wed Sep 22, 7:04am

Wed Sep 22, 6:04am

Wed Sep 22, 5:04am

Wed Sep 22, 4:04am

Wed Sep 22, 3:04am

Wed Sep 22, 2:04am

Wed Sep 22, 1:04am

Wed Sep 22, 12:04am

Tue Sep 21, 11:04pm

Tue Sep 21, 10:04pm

Tue Sep 21, 9:04pm

Tue Sep 21, 8:04pm

Tue Sep 21, 7:04pm

Tue Sep 21, 6:04pm

Tue Sep 21, 5:04pm

Tue Sep 21, 4:04pm

Tue Sep 21, 3:04pm

Tue Sep 21, 2:04pm

Tue Sep 21, 1:04pm

Tue Sep 21, 12:04pm

Tue Sep 21, 11:04am

Tue Sep 21, 10:04am

Tue Sep 21, 9:04am

Tue Sep 21, 8:04am

Tue Sep 21, 7:04am

Tue Sep 21, 6:04am

Tue Sep 21, 5:04am

Tue Sep 21, 4:04am

Tue Sep 21, 3:04am

Tue Sep 21, 1:04am

Tue Sep 21, 12:04am

Mon Sep 20, 11:04pm

Mon Sep 20, 10:04pm

Mon Sep 20, 9:04pm

Mon Sep 20, 8:04pm

Mon Sep 20, 7:04pm

Mon Sep 20, 6:04pm

Mon Sep 20, 5:04pm

Mon Sep 20, 4:04pm

Mon Sep 20, 3:04pm

Mon Sep 20, 2:04pm

Mon Sep 20, 1:04pm

Mon Sep 20, 12:04pm

Mon Sep 20, 11:04am

Mon Sep 20, 10:04am

Mon Sep 20, 9:04am

Mon Sep 20, 7:04am

Mon Sep 20, 6:04am

Mon Sep 20, 5:04am

Mon Sep 20, 4:04am

Mon Sep 20, 3:04am

Mon Sep 20, 2:04am

Mon Sep 20, 1:04am

Mon Sep 20, 12:04am

Sun Sep 19, 11:04pm

Sun Sep 19, 10:04pm

Sun Sep 19, 9:04pm

Sun Sep 19, 8:04pm

Sun Sep 19, 7:04pm

Sun Sep 19, 6:04pm

Sun Sep 19, 5:04pm

Sun Sep 19, 4:04pm

Sun Sep 19, 3:04pm

Sun Sep 19, 2:05pm

Sun Sep 19, 1:04pm

Sun Sep 19, 12:04pm

Sun Sep 19, 11:04am

Sun Sep 19, 10:05am

Sun Sep 19, 9:04am

Sun Sep 19, 8:04am

Sun Sep 19, 7:04am

Sun Sep 19, 6:04am

Sun Sep 19, 5:04am

Sun Sep 19, 4:04am

Sun Sep 19, 3:04am

Sun Sep 19, 2:04am

Sun Sep 19, 1:04am

Sun Sep 19, 12:04am

Sat Sep 18, 11:05pm

Sat Sep 18, 10:04pm

Sat Sep 18, 9:04pm

Sat Sep 18, 8:04pm

Sat Sep 18, 7:04pm

Sat Sep 18, 6:04pm

Sat Sep 18, 5:04pm

Sat Sep 18, 4:04pm

Sat Sep 18, 3:04pm

Sat Sep 18, 2:04pm

Sat Sep 18, 1:04pm

Sat Sep 18, 12:04pm

Sat Sep 18, 11:04am

Sat Sep 18, 10:04am

Sat Sep 18, 9:04am

Sat Sep 18, 8:04am

Sat Sep 18, 7:04am

Sat Sep 18, 6:04am

Sat Sep 18, 5:04am

Sat Sep 18, 4:04am

Sat Sep 18, 3:04am

Sat Sep 18, 2:04am

Sat Sep 18, 1:04am

Sat Sep 18, 12:04am

Fri Sep 17, 11:04pm

Fri Sep 17, 10:04pm

Fri Sep 17, 9:04pm

Fri Sep 17, 8:04pm

Fri Sep 17, 7:04pm

Fri Sep 17, 6:04pm

Fri Sep 17, 5:04pm

Fri Sep 17, 4:04pm

Fri Sep 17, 3:04pm

Fri Sep 17, 2:04pm

Fri Sep 17, 1:04pm

Fri Sep 17, 12:05pm

Fri Sep 17, 11:04am

Fri Sep 17, 10:04am

Fri Sep 17, 9:04am

Fri Sep 17, 8:04am

Fri Sep 17, 7:04am

Fri Sep 17, 6:04am

Fri Sep 17, 5:04am

Fri Sep 17, 4:04am

Fri Sep 17, 3:04am

Fri Sep 17, 2:04am

Fri Sep 17, 1:04am

Fri Sep 17, 12:04am

Thu Sep 16, 11:04pm

Thu Sep 16, 10:04pm

Thu Sep 16, 9:04pm

Thu Sep 16, 8:04pm

Thu Sep 16, 7:04pm

Thu Sep 16, 6:04pm

Thu Sep 16, 5:04pm

Thu Sep 16, 4:04pm

Thu Sep 16, 3:04pm

Thu Sep 16, 2:04pm

Thu Sep 16, 1:05pm

Thu Sep 16, 12:04pm

Thu Sep 16, 11:05am

Thu Sep 16, 10:05am

Thu Sep 16, 9:04am

Thu Sep 16, 8:04am

Thu Sep 16, 7:04am

Thu Sep 16, 6:04am

Thu Sep 16, 5:04am

Thu Sep 16, 4:04am

Thu Sep 16, 3:04am

Thu Sep 16, 2:04am

Thu Sep 16, 1:04am

Thu Sep 16, 12:04am

Wed Sep 15, 11:04pm

Wed Sep 15, 10:04pm

Wed Sep 15, 9:04pm

Wed Sep 15, 8:04pm

Wed Sep 15, 7:04pm

Wed Sep 15, 6:04pm

Wed Sep 15, 5:05pm

Wed Sep 15, 4:04pm

Wed Sep 15, 3:04pm

Meta data:

ID: 9ff38786-1613-46ec-a034-29fc044872f6
Link: https://api.weather.gov/products/9ff38786-1613-46ec-a034-29fc044872f6